{"data":{"norad_id":55311,"intl_designator":"2023-010AU","name":"STARLINK-5312","alt_names":[],"object_type":"PAYLOAD","status":"ACTIVE","operator":null,"country":"US","launch_date":"2023-01-19","launch_site_code":"AFWTR","launch_vehicle":null,"mission":null,"orbit_class":"UNKNOWN","rcs_meters":null,"size_class":null,"mass_kg":null,"dimensions":null,"purposes":["comms"],"wikipedia_slug":null,"has_3d_model":false,"image_url":null,"decayed_at":null,"tle_current":{"epoch":"2026-05-25T03:46:08.072832Z","epoch_age_seconds":55505,"freshness":"FRESH","line1":"1 55311U 23010AU  26145.15703788  .00000339  00000+0  36245-4 0  9996","line2":"2 55311  69.9983 171.7618 0003772 269.0333  91.0393 14.98337673186097","mean_motion":14.98337673,"eccentricity":0.0003772,"inclination_deg":69.9983,"raan_deg":171.7618,"arg_perigee_deg":269.0333,"mean_anomaly_deg":91.0393,"bstar":3.6245e-5,"rev_number":18609,"period_min":96.106506960931,"perigee_km":569.41055911787,"apogee_km":574.65376673438,"semimajor_km":6950.1691629261,"source":"CELESTRAK","updated_at":"2026-05-25T13:38:17.757433Z"}}}